Left ArrowRight Arrow

Hourly Observations for June 16, 2024

Temp ( °F °C ) Dew Point ( °F °C ) Humidity (%) Winds ( mph kmh ) Pressure ( in mb ) Visibility ( mi km ) Precip ( " mm )
12:55 am 00:55 Clear 68 20.1 64 17.9 87 87 ESE 5 7 29.72 1006 10 16 0.00 0.00
1:55 am 01:55 Mostly Cloudy 69 20.8 66 18.7 88 88 ESE 7 11 29.68 1005 10 16 0.00 0.00
2:55 am 02:55 Mostly Clear 71 21.8 67 19.7 88 88 SSE 9 15 29.67 1005 10 16 0.00 0.00
3:55 am 03:55 Clear 71 21.8 68 19.9 89 89 SSE 12 19 29.65 1004 10 16 0.00 0.00
4:55 am 04:55 Clear 72 22.3 63 17.2 73 73 S 13 20 29.67 1005 10 16 0.00 0.00
5:55 am 05:55 Sunny 71 21.7 62 16.6 73 73 SSE 12 19 29.66 1005 10 16 0.00 0.00
6:55 am 06:55 Mostly Cloudy 71 21.7 63 17.1 75 75 SSE 13 20 29.68 1005 10 16 0.00 0.00
7:55 am 07:55 Mostly Cloudy 75 23.7 63 17.2 67 67 S 14 22 29.70 1006 10 16 0.00 0.00
8:55 am 08:55 Mostly Cloudy 79 26.2 65 18.6 63 63 S 16 26 29.70 1006 10 16 0.00 0.00
9:55 am 09:55 Mostly Cloudy 81 27.3 67 19.3 62 62 S 15 24 29.70 1006 10 16 0.00 0.00
10:55 am 10:55 Mostly Cloudy 83 28.3 67 19.5 59 59 S 15 24 29.70 1006 10 16 0.00 0.00
11:55 am 11:55 Mostly Cloudy 86 29.9 69 20.4 57 57 SSW 16 26 29.70 1006 10 16 0.00 0.00
12:55 pm 12:55 Partly Cloudy 87 30.8 70 21.3 57 57 SSW 16 26 29.69 1005 10 16 0.00 0.00
1:55 pm 13:55 Partly Cloudy 90 32 71 21.8 55 55 SW 12 19 29.69 1005 10 16 0.00 0.00
2:55 pm 14:55 Mostly Sunny 90 32.2 72 22 55 55 SW 10 17 29.68 1005 10 16 0.00 0.00
3:55 pm 15:55 Partly Cloudy 91 32.6 72 22.3 55 55 SW 10 17 29.67 1005 10 16 0.00 0.00
4:55 pm 16:55 Mostly Cloudy 90 32.4 72 22.4 56 56 S 13 20 29.67 1005 10 16 0.00 0.00
5:55 pm 17:55 Mostly Cloudy 91 32.5 73 22.8 57 57 S 10 17 29.66 1004 10 16 0.00 0.00
6:55 pm 18:55 Cloudy 89 31.7 74 23.2 61 61 S 7 11 29.67 1005 10 16 0.00 0.00
7:55 pm 19:55 Mostly Cloudy 87 30.6 75 23.7 67 67 SSE 10 17 29.68 1005 10 16 0.00 0.00
8:55 pm 20:55 Sunny 84 29.1 76 24.2 75 75 ESE 7 11 29.67 1005 10 16 0.00 0.00
9:55 pm 21:55 Clear 82 27.9 76 24.3 81 81 SE 7 11 29.70 1006 10 16 0.00 0.00
10:55 pm 22:55 Clear 82 27.8 75 24 80 80 SE 9 15 29.71 1006 10 16 0.00 0.00
11:55 pm 23:55 Clear 82 27.9 74 23.2 76 76 SSE 13 20 29.71 1006 10 16 0.00 0.00

Powered by Vaisala Xweather